Printer-friendly version

IAU Minor Planet Center

Minor Planet Center

MPEC 2005-J24 : 2005 JO3

The following Minor Planet Electronic Circular may be linked-to from your own Web pages, but must not otherwise be redistributed electronically.


Read MPEC 2005-J23 Read MPEC 2005-J25


M.P.E.C. 2005-J24                                Issued 2005 May 6, 10:56 UT

     The Minor Planet Electronic Circulars contain information on unusual
         minor planets and routine data on comets.  They are published
   on behalf of Commission 20 of the International Astronomical Union by the
          Minor Planet Center, Smithsonian Astrophysical Observatory,
                          Cambridge, MA 02138, U.S.A.

                  Supported in part by the Brinson Foundation
             Prepared using the Tamkin Foundation Computer Network

                              MPC@CFA.HARVARD.EDU
          URL http://cfa-www.harvard.edu/iau/mpc.html  ISSN 1523-6714

                                   2005 JO3

Observations:
     K05J03O* C2005 05 04.15185 10 34 01.31 +08 26 40.3          20.3 R EJ024G96
     K05J03O  C2005 05 04.15986 10 34 00.66 +08 26 26.8                 EJ024G96
     K05J03O  C2005 05 04.16787 10 34 00.06 +08 26 12.6                 EJ024G96
     K05J03O  C2005 05 04.17582 10 33 59.44 +08 25 58.2                 EJ024G96
     K05J03O 3C2005 05 05.34209 10 32 34.77 +07 51 59.2          21.1 R EJ024F65
     K05J03O 3C2005 05 05.34366 10 32 34.66 +07 51 56.0          21.1 R EJ024F65
     K05J03O 3C2005 05 05.34487 10 32 34.63 +07 51 53.9          21.3 R EJ024F65
     K05J03O 3C2005 05 06.35719 10 31 26.14 +07 22 23.9          21.2 R EJ024F65
     K05J03O 3C2005 05 06.36043 10 31 25.94 +07 22 18.0                 EJ024F65

Observer details:
F65 Haleakala-Faulkes Telescope North.  Observers M. O. Montgomery,
    A. D. Taylor, P. D. Gray, H. S. A. Dalton.  Measurer A. D. Taylor.  2.0-m
    Ritchey-Chretien + CCD.
G96 Mt. Lemmon Survey.  Observer A. Grauer.  Measurers E. C. Beshore,
    C. M. Casey, E. J. Christensen, G. J. Garradd, A. Grauer, R. E. Hill,
    S. M. Larson, R. H. McNaught.  1.5-m reflector + CCD.

Orbital elements:
2005 JO3
Epoch 2005 Apr. 20.0 TT = JDT 2453480.5                 MPC
M 277.11244              (2000.0)            P               Q
n   0.61862991     Peri.  292.84303     +0.62528117     +0.76651786
a   1.3641081      Node    18.35196     -0.42754719     +0.49355834
e   0.3319868      Incl.   27.73750     -0.65286052     +0.41091427
P   1.59           H   20.0           G   0.15
From 9 observations 2005 May 4-6.

Ephemeris:
2005 JO3                 a,e,i = 1.36, 0.33, 28                  q = 0.9112
Date    TT    R. A. (2000) Decl.     Delta      r     Elong.  Phase     V
2005 04 30    10 39.88   +10 28.1    0.620    1.409   117.9    39.2    21.3
2005 05 10    10 27.94   +05 36.8    0.661    1.360   107.2    45.2    21.5
2005 05 20    10 22.61   +00 51.5    0.704    1.311    98.0    49.9    21.7
2005 05 30    10 22.31   -03 46.0    0.744    1.260    90.2    53.6    21.8
2005 06 09    10 25.83   -08 18.8    0.779    1.208    83.5    56.6    21.9
2005 06 19    10 32.25   -12 51.2    0.805    1.156    77.9    59.2    22.0
2005 06 29    10 40.88   -17 26.8    0.819    1.106    73.2    61.7    22.0
2005 07 09    10 51.36   -22 08.4    0.821    1.058    69.3    64.1    22.0
2005 07 19    11 03.52   -26 58.8    0.808    1.013    66.4    66.7    21.9
2005 07 29    11 17.42   -31 58.7    0.780    0.975    64.2    69.7    21.9
2005 08 08    11 33.60   -37 08.7    0.737    0.944    62.9    73.0    21.8
2005 08 18    11 53.21   -42 29.5    0.681    0.923    62.5    76.6    21.7
2005 08 28    12 18.74   -47 59.4    0.613    0.912    62.9    80.3    21.5
2005 09 07    12 55.71   -53 34.0    0.537    0.913    64.3    83.8    21.4
2005 09 17    13 55.71   -58 45.9    0.456    0.926    66.8    86.2    21.2
2005 09 27    15 37.74   -61 32.7    0.380    0.950    71.1    86.7    20.8
2005 10 07    17 53.85   -56 37.9    0.318    0.982    77.7    83.8    20.4
2005 10 17    19 42.17   -40 54.2    0.290    1.022    86.7    76.8    20.0
2005 10 27    20 48.09   -20 34.0    0.308    1.067    95.3    68.0    20.0
2005 11 06    21 30.66   -03 30.6    0.367    1.116   100.1    61.0    20.2
2005 11 16    22 02.34   +08 24.2    0.453    1.167   101.5    56.2    20.7
2005 11 26    22 28.97   +16 32.7    0.553    1.218   100.8    52.7    21.1
2005 12 06    22 53.45   +22 20.8    0.661    1.270    99.1    50.0    21.5
2005 12 16    23 17.24   +26 43.8    0.773    1.321    96.8    47.7    21.8

Timothy B. Spahr             (C) Copyright 2005 MPC           M.P.E.C. 2005-J24

Read MPEC 2005-J23 Read MPEC 2005-J25


Our Web policy. Index to the CBAT/MPC/ICQ pages.


Valid HTML 4.01!